Hourly Data Report for June 18, 2020

OTTAWA INTL A
ONTARIO
Current Station Operator: NAVCAN

45°19'00.000" N
75°40'00.000" W
114.90 m
6106001
71628
YOW

Download Data

Hourly Data (June 2020)
Hourly Data Report for June 18, 2020
TIME
LST
Temp Definition
°C
Dew Point Definition
°C
Rel Hum Definition
%
Precip. Amount Definition
mm

Wind Dir Definition
10's deg

Wind Spd Definition
km/h
Visibility Definition
km
Stn Press Definition
kPa
Hmdx Definition


Wind Chill Definition


Weather Definition


00:00 19.0 11.7 62   24 6 24.1 100.66     LegendNANA
01:00 17.6 11.8 68   23 7 24.1 100.66     Clear
02:00 15.7 10.8 73   22 5 24.1 100.67     LegendNANA
03:00 13.2 10.4 83   19 8 24.1 100.66     LegendNANA
04:00 13.3 10.4 82   18 9 24.1 100.66     Mainly Clear
05:00 14.7 11.5 81   19 8 24.1 100.69     LegendNANA
06:00 16.5 12.2 76   25 3 24.1 100.74     LegendNANA
07:00 19.2 13.5 69   20 8 24.1 100.76     Mainly Clear
08:00 22.5 14.2 59   23 4 24.1 100.77 26   LegendNANA
09:00 25.8 14.7 50   21 13 24.1 100.74 30   LegendNANA
10:00 27.9 13.1 40   21 13 24.1 100.71 31   Mainly Clear
11:00 29.5 10.6 30   22 13 24.1 100.64 31   LegendNANA
12:00 30.1 11.6 32   21 10 24.1 100.58 32   LegendNANA
13:00 30.6 11.9 31   25 18 24.1 100.51 33   Clear
14:00 31.3 10.6 27   22 16 24.1 100.46 33   LegendNANA
15:00 31.8 11.3 28   22 14 24.1 100.40 34   LegendNANA
16:00 31.4 11.4 29   20 14 24.1 100.36 33   Clear
17:00 31.0 12.2 31   22 12 24.1 100.33 33   LegendNANA
18:00 29.9 12.5 34   19 12 24.1 100.30 32   LegendNANA
19:00 27.8 13.6 41   21 10 24.1 100.31 31   Mainly Clear
20:00 25.4 13.2 46   21 9 24.1 100.31 28   LegendNANA
21:00 24.9 12.6 46   20 9 24.1 100.34 27   LegendNANA
22:00 22.2 12.8 55   19 7 24.1 100.29 25   Mainly Clear
23:00 21.2 12.7 58   19 9 24.1 100.28     LegendNANA

Notes on Data Quality.

Legend

  • E = Estimated
  • M = Missing
  • NA = Not Available*
  • [empty] = Indicates an unobserved value
Date modified: